User: anonymous   Login
Location: Unspecified
(0.0000°N, 0.0000°E)
Time: 06:21:49
(UTC+00:00)
Language:

PLEIADES 1B - Orbit

View from above orbital plane
View from above orbital plane
View from above satellite
View from above satellite

Ground track
Ground track

The orbit data is extracted from the following two-line orbital elements,

1 39019U 12068A   17080.84174642 -.00000005 +00000-0 +87668-5 0  9997
2 39019 098.1716 157.1850 0001409 085.7584 274.3767 14.58561832228982
Epoch (UTC): 21 March 2017 20:12:06
Eccentricity: 0.0001409
inclination: 98.1716°
perigee height: 697 km
apogee height: 699 km
right ascension of ascending node: 157.1850°
argument of perigee: 85.7584°
revolutions per day: 14.58561832
mean anomaly at epoch: 274.3767°
orbit number at epoch: 22898

The dashed part of the orbit path shows where the satellite is in the earth's shadow,  

DLR